Location: Écuvilly
(49.6505°N, 2.9206°E)
Time: 15:32:23
(UTC+00:00)

MOS 1 Rocket - Pass Details

Date: 17 November 2025
Orbit: 610 x 813 km, 97.4° (Epoch: 13 December)

Event Time Altitude Azimuth Distance (km) Brightness Sun altitude
Rises 16:53:58 0° 140° (SE) 2,882 6.3 -8.4°
Reaches altitude 10° 16:56:14 10° 132° (SE) 1,996 5.4 -8.7°
Maximum altitude 17:00:09 34° 67° (ENE) 1,051 3.7 -9.3°
Drops below altitude 10° 17:04:15 10° 2° (N) 2,092 5.6 -9.9°
Sets 17:06:41 0° 354° (N) 3,043 6.5 -10.3°
